GSAT0210 (GALILEO 13)

Last updated on Tue Oct 14 2025 00:02:34 GMT+0000 (Coordinated Universal Time)

1 41550U 16030B 25286.10173839 -.00000011 00000+0 00000+0 0 9991 2 41550 55.1757 228.4885 0003050 248.2945 111.6591 1.70473393 58459
UTC large
Height (km)
Speed (km/s)
/
Latitude / Longitude
Inclination (degrees)
Orbital Period (minutes)
Azimuth
Elevation
Range (km)
Doppler Factor

Next 0 passes for location: London (51.5072 / 0.1276)

Sorry there are no passes over London.